Weather Roundup
Issued by NWS

Home | Current Version | Previous Version | Graphics & Text | Print | Product List | Glossary Off
Versions: 1 2 3 4 5 6 7 8 9 10 11 12 13 14 15 16 17 18 19 20 21 22 23 24 25 26 27 28 29 30 31 32 33 34 35 36 37 38 39 40 41 42 43 44 45 46 47 48 49 50

000
NZUS93 KARX 230759
HRRWXR

CURRENT HOURLY OBSERVATIONS ACROSS
MUCH OF THE UPPER MISSISSIPPI VALLEY
NATIONAL WEATHER SERVICE LA CROSSE WI
300 AM CDT TUE MAY 23 2017


...SOUTHEAST MINNESOTA...


CITY           SKY/WX    TMP DP  RH WIND       PRES   REMARKS
ROCHESTER      CLOUDY    50  49  96 NW12      29.80F
ROCHESTER/MAYO CLOUDY    52  49  89 NW9       29.80S
WINONA         CLOUDY    54  52  94 CALM      29.77F
AUSTIN         RAIN      50  46  87 NW7       29.81S
ALBERT LEA     CLOUDY    52  48  87 CALM      29.81F
DODGE CENTER   CLOUDY    48  46  93 CALM      29.81S
PRESTON        PTCLDY    49  47  91 NW7       29.78F
OWATONNA       CLOUDY    52  46  82 NW3       29.81F
FARIBAULT      CLOUDY    52  46  82 W3        29.81F
$$

...ELSEWHERE IN MINNESOTA...


CITY           SKY/WX    TMP DP  RH WIND       PRES   REMARKS
MINNEAPOLIS    CLOUDY    53  47  79 SW3       29.81F
INTNL FALLS    LGT RAIN  48  46  93 N7        29.85S FOG
DULUTH         CLOUDY    47  44  90 N6        29.80F
RED WING       DRIZZLE   52  46  82 N3        29.80S
REDWOOD FALLS  CLOUDY    48  42  80 NW8       29.84F
MANKATO        CLOUDY    50  47  89 NW8       29.83F
WORTHINGTON    LGT RAIN  48  44  86 NW13      29.87F
FAIRMONT       CLOUDY    50  47  89 NW8       29.84F
$$

...SOUTHWEST WISCONSIN...


CITY           SKY/WX    TMP DP  RH WIND       PRES   REMARKS
LA CROSSE      CLOUDY    54  54 100 CALM      29.76F FOG
PRAIRIE DU CHI MOCLDY    51  50  96 CALM      29.77F
BOSCOBEL       FOG       51  50  96 CALM      29.77F VSB 3/4
LONE ROCK      NOT AVBL
PLATTEVILLE    PTCLDY    55  55 100 S7        29.78F
FORT MC COY    FOG       49  49 100 CALM      29.77F VSB 3/4
MAUSTON-NEW LI CLOUDY    52  51  96 CALM      29.76F FOG
VIROQUA        CLOUDY    51  51 100 MISG      29.78S VSB 3/4
WIS DELLS      CLOUDY    53  51  94 CALM      29.76F
$$

...ELSEWHERE IN WISCONSIN...


CITY           SKY/WX    TMP DP  RH WIND       PRES   REMARKS
MILWAUKEE      CLOUDY    59  55  87 SW7       29.80F
MADISON        PTCLDY    55  54  96 S7        29.76F
GREEN BAY      CLOUDY    50  46  86 E5        29.80F
EAU CLAIRE     CLOUDY    51  48  89 N5        29.78F
BLACK RVR FLS  CLOUDY    52  52 100 NE5       29.77F
MEDFORD        LGT RAIN  47  42  82 SE5       29.80S
WAUSAU         LGT RAIN  48  43  82 CALM      29.79F
WIS RAPIDS     LGT RAIN  51  49  92 E10       29.78F
MARSHFIELD     LGT RAIN  49  45  86 E5        29.78F
RICE LAKE      DRIZZLE   47  46  94 CALM      29.82F
$$

...NORTHEAST IOWA...


CITY           SKY/WX    TMP DP  RH WIND       PRES   REMARKS
WATERLOO       CLEAR     50  49  96 NW9       29.77F FOG
DUBUQUE        PTCLDY    52  51  97 S8        29.77F
DECORAH        FOG       50  50 100 NW5       29.76F VSB<1/4
MASON CITY     LGT RAIN  50  46  86 NW10      29.83F
CHARLES CITY   MOCLDY    52  52 100 NW10      29.79F
OELWEIN        NOT AVBL
$$

...ELSEWHERE IN IOWA...


CITY           SKY/WX    TMP DP  RH WIND       PRES   REMARKS
DES MOINES     PTCLDY    54  50  86 NW10      29.82F
IOWA CITY      PTCLDY    55  50  83 SW7       29.82F
FORT DODGE     MOCLDY    52  46  82 NW5       29.85S
MARSHALLTOWN   CLEAR     49  49 100 NW6       29.79F
CEDAR RAPIDS   PTCLDY    51  51 100 SW5       29.79S
$$

...NORTHERN ILLINOIS...


CITY           SKY/WX    TMP DP  RH WIND       PRES   REMARKS
CHICAGO-OHARE  CLOUDY    60  53  77 SW10      29.83F
CHICAGO-MIDWAY CLOUDY    60  54  80 S8        29.84F
MOLINE         CLOUDY    57  50  77 SW8       29.81F
ROCKFORD       CLOUDY    56  53  90 S6        29.82F
PEORIA         LGT RAIN  57  55  93 SW5       29.85F
$$

NOTE: "FAIR" INDICATES FEW OR NO CLOUDS BELOW 12,000 FEET WITH NO
SIGNIFICANT WEATHER AND/OR OBSTRUCTIONS TO VISIBILITY. WIND
SPEEDS ARE IN MILES-PER-HOUR.




USA.gov is the U.S. government's official web portal to all federal, state and local government web resources and services.